Location: Stanford
(52.2833°N, 2.4333°W)
Time: 03:13:26
(UTC+00:00)

SJ 16-02 - Pass Details

Date: 22 January 2021
Orbit: 607 x 615 km, 75.0° (Epoch: 24 February)

Event Time Altitude Azimuth Distance (km) Brightness Sun altitude
Rises 19:18:43 0° 219° (SW) 2,868 5.3 -24.0°
Reaches altitude 10° 19:21:01 10° 225° (SW) 1,966 4.5 -24.3°
Maximum altitude 19:25:15 47° 300° (WNW) 821 2.3 -25.0°
Enters shadow 19:26:55 31° 353° (N) 1,080 2.6 -25.2°
